Dodge City, KS

12:04 PM CDT on July 26, 2017 (GMT -0500)
Dodge City Regional

Weather History for KDDC - October, 2013

Change the Weather History Date:

Monday, October 14, 2013

  Actual Average Record
Temperature  
Mean Temperature 60 °F -  
Max Temperature 75 °F 72 °F 96 °F (1968)
Min Temperature 45 °F 45 °F 28 °F (1969)
Degree Days  
Heating Degree Days 4    
Growing Degree Days 10 (Base 50)    
Moisture  
Dew Point 57 °F    
Average Humidity 83    
Maximum Humidity 100    
Minimum Humidity 24    
Precipitation  
Precipitation 0.12 in - - ()
Sea Level Pressure  
Sea Level Pressure 29.95 in    
Wind  
Wind Speed 17 mph (SSE)    
Max Wind Speed 26 mph    
Max Gust Speed 37 mph    
Visibility 6 miles    
Events Fog , Rain , Thunderstorm    
Averages and records for this station are not official NWS values.
T = Trace of Precipitation, MM = Missing Value Source: NWS Daily Summary

Daily Weather History Graph

Daily Weather History Graph

Search for Another Location

Airport or City:

Trip Planner

Search our weather history database for the weather conditions in past years. The results will help you decide how hot, cold, wet, or windy it might be!

Date:

Astronomy

Oct. 14, 2013 Rise Set
Actual Time 7:47 AM CDT 7:03 PM CDT
Civil Twilight 7:21 AM CDT 7:29 PM CDT
Nautical Twilight 6:50 AM CDT 8:00 PM CDT
Astronomical Twilight 6:20 AM CDT 8:30 PM CDT
Moon 4:30 PM CDT (10/14) 3:10 AM CDT (10/14)
Length of Visible Light 12h 08m
Length of Day
11h 15m
Waxing Gibbous, 79% of the Moon is Illuminated
Oct 14
Waxing Gibbous
Oct 18
Full
Oct 26
Last Quarter
Nov 3
New
Nov 9
First Quarter

Hourly Weather History & Observations

Time (CDT) Temp. Windchill Dew Point Humidity Pressure Visibility Wind Dir Wind Speed Gust Speed Precip Events Conditions
12:10 AM 57.2 °F - 55.4 °F 94% 30.16 in 2.5 mi SE 16.1 mph - N/A   Overcast
12:28 AM 57.2 °F - 55.4 °F 94% 30.15 in 2.5 mi SE 15.0 mph - N/A   Overcast
12:52 AM 57.0 °F - 55.0 °F 93% 30.11 in 2.5 mi SE 13.8 mph - N/A   Overcast
1:18 AM 57.2 °F - 55.4 °F 94% 30.14 in 3.0 mi SE 13.8 mph - N/A   Overcast
1:27 AM 57.2 °F - 55.4 °F 94% 30.13 in 2.5 mi SE 15.0 mph - N/A   Overcast
1:45 AM 57.2 °F - 55.4 °F 94% 30.13 in 1.8 mi SE 12.7 mph - N/A   Overcast
1:52 AM 57.9 °F - 55.9 °F 93% 30.08 in 1.5 mi SSE 12.7 mph - N/A   Overcast
2:20 AM 57.2 °F - 57.2 °F 100% 30.13 in 1.2 mi SE 10.4 mph - N/A   Overcast
2:40 AM 59.0 °F - 57.2 °F 94% 30.12 in 0.8 mi SE 9.2 mph - N/A   Overcast
2:52 AM 59.0 °F - 57.9 °F 96% 30.06 in 1.0 mi SSE 11.5 mph - N/A   Overcast
3:15 AM 59.0 °F - 57.2 °F 94% 30.10 in 0.5 mi SSE 17.3 mph - N/A Fog Fog
3:43 AM 60.8 °F - 59.0 °F 94% 30.08 in 1.5 mi SSE 15.0 mph - 0.01 in Rain Light Rain
3:52 AM 60.1 °F - 59.0 °F 96% 30.02 in 1.2 mi SSE 13.8 mph - 0.02 in Rain Light Rain
4:02 AM 60.8 °F - 59.0 °F 94% 30.08 in 2.0 mi SSE 15.0 mph - 0.00 in   Overcast
4:13 AM 60.8 °F - 59.0 °F 94% 30.07 in 1.2 mi SSE 15.0 mph - 0.00 in   Overcast
4:28 AM 60.8 °F - 59.0 °F 94% 30.06 in 2.0 mi SSE 12.7 mph - 0.00 in   Overcast
4:38 AM 60.8 °F - 59.0 °F 94% 30.06 in 4.0 mi SSE 15.0 mph - 0.00 in   Overcast
4:52 AM 61.0 °F - 59.0 °F 93% 29.99 in 5.0 mi SSE 16.1 mph - 0.00 in   Overcast
5:52 AM 62.1 °F - 61.0 °F 96% 29.97 in 4.0 mi SSE 18.4 mph - N/A   Overcast
6:49 AM 62.6 °F - 60.8 °F 94% 30.01 in 6.0 mi SSE 19.6 mph 26.5 mph 0.00 in   Overcast
6:52 AM 62.1 °F - 61.0 °F 96% 29.96 in 5.0 mi SSE 17.3 mph 26.5 mph 0.00 in   Overcast
7:02 AM 62.6 °F - 60.8 °F 94% 30.01 in 5.0 mi SSE 17.3 mph 26.5 mph 0.00 in Rain Light Rain
7:19 AM 62.6 °F - 60.8 °F 94% 30.00 in 2.0 mi SSE 18.4 mph 26.5 mph 0.03 in Rain Rain
7:27 AM 62.6 °F - 60.8 °F 94% 29.99 in 3.0 mi SSE 19.6 mph 24.2 mph 0.04 in Rain , Thunderstorm Light Rain
7:52 AM 62.1 °F - 61.0 °F 96% 29.94 in 5.0 mi SSE 17.3 mph 27.6 mph 0.06 in Thunderstorm Overcast
7:59 AM 62.6 °F - 60.8 °F 94% 29.98 in 4.0 mi SSE 19.6 mph 25.3 mph 0.00 in Rain Light Rain
8:30 AM 62.6 °F - 60.8 °F 94% 29.98 in 5.0 mi South 19.6 mph 27.6 mph 0.01 in   Overcast
8:52 AM 63.0 °F - 61.0 °F 93% 29.93 in 6.0 mi South 19.6 mph 27.6 mph 0.01 in   Overcast
9:52 AM 63.0 °F - 61.0 °F 93% 29.92 in 4.0 mi South 20.7 mph 27.6 mph 0.00 in Rain Light Rain
10:07 AM 62.6 °F - 60.8 °F 94% 29.96 in 2.5 mi South 20.7 mph 28.8 mph 0.01 in Rain Light Rain
10:16 AM 62.6 °F - 60.8 °F 94% 29.95 in 5.0 mi South 19.6 mph - 0.01 in   Overcast
10:52 AM 64.0 °F - 61.0 °F 90% 29.88 in 6.0 mi South 21.9 mph 28.8 mph 0.01 in   Overcast
11:49 AM 64.4 °F - 62.6 °F 94% 29.91 in 2.0 mi South 20.7 mph 27.6 mph 0.02 in Rain Light Rain
11:52 AM 64.0 °F - 62.1 °F 93% 29.86 in 2.0 mi South 20.7 mph 27.6 mph 0.02 in Rain Light Rain
12:10 PM 64.4 °F - 62.6 °F 94% 29.90 in 4.0 mi South 19.6 mph 28.8 mph 0.01 in Rain Light Rain
12:52 PM 64.9 °F - 62.1 °F 90% 29.82 in 7.0 mi South 23.0 mph 31.1 mph 0.01 in   Overcast
1:08 PM 66.2 °F - 62.6 °F 88% 29.86 in 8.0 mi South 24.2 mph 33.4 mph N/A   Overcast
1:52 PM 69.1 °F - 63.0 °F 81% 29.78 in 10.0 mi South 25.3 mph 32.2 mph N/A   Overcast
2:09 PM 69.8 °F - 62.6 °F 78% 29.82 in 10.0 mi South 25.3 mph 34.5 mph N/A   Mostly Cloudy
2:35 PM 71.6 °F - 62.6 °F 73% 29.80 in 10.0 mi South 21.9 mph 32.2 mph N/A   Mostly Cloudy
2:52 PM 71.1 °F - 62.1 °F 73% 29.73 in 10.0 mi South 25.3 mph 33.4 mph N/A   Mostly Cloudy
3:31 PM 73.4 °F - 62.6 °F 69% 29.75 in 10.0 mi South 26.5 mph 35.7 mph N/A   Scattered Clouds
3:52 PM 75.9 °F - 61.0 °F 60% 29.68 in 10.0 mi South 25.3 mph 36.8 mph N/A   Clear
4:52 PM 73.0 °F - 62.1 °F 68% 29.68 in 10.0 mi South 24.2 mph 31.1 mph N/A   Clear
5:52 PM 73.0 °F - 61.0 °F 66% 29.68 in 10.0 mi SW 18.4 mph 34.5 mph N/A Thunderstorm Partly Cloudy
6:03 PM 75.2 °F - 42.8 °F 31% 29.78 in 10.0 mi WNW 16.1 mph 26.5 mph N/A Thunderstorm Mostly Cloudy
6:52 PM 68.0 °F - 39.9 °F 36% 29.75 in 10.0 mi NW 13.8 mph - 0.00 in Thunderstorm Clear
7:12 PM 64.4 °F - 42.8 °F 45% 29.85 in 10.0 mi NNW 16.1 mph 21.9 mph N/A   Clear
7:52 PM 59.0 °F - 42.1 °F 53% 29.86 in 10.0 mi North 15.0 mph 24.2 mph N/A   Clear
8:52 PM 55.0 °F - 42.1 °F 62% 29.91 in 10.0 mi North 16.1 mph - N/A   Partly Cloudy
9:52 PM 51.1 °F - 41.0 °F 68% 29.96 in 10.0 mi North 16.1 mph - N/A   Clear
10:52 PM 46.9 °F - 39.0 °F 74% 30.00 in 10.0 mi North 12.7 mph - N/A   Clear
11:52 PM 45.0 °F 39.7 °F 37.9 °F 76% 30.01 in 10.0 mi North 10.4 mph - N/A   Clear